,,,PA_Meas_PMT16A,,PR_Meas_QMR101_102,,RH_Meas_QMH101,,SR_Meas_QMS101,,TA_Meas_QMH101,,GenWind,,GenWind,
date,time,status,PA,status,PR,status,RH,status,SR,status,TA,status,DirAvg,status,SpdAvg,
2008-11-28, 00:00:04,VALID,1003.95,VALID,0,VALID,87.7321,VALID,0,VALID,26.1395,VALID,304,VALID,0.325391,
2008-11-28, 00:01:04,VALID,1003.98,VALID,0,VALID,87.7245,VALID,0,VALID,26.118,VALID,344,VALID,0.587109,
2008-11-28, 00:02:04,VALID,1003.93,VALID,0,VALID,87.7855,VALID,0,VALID,26.12,VALID,358,VALID,0.766016,
2008-11-28, 00:03:04,VALID,1003.92,VALID,0,VALID,87.8694,VALID,0,VALID,26.12,VALID,342,VALID,0.251172,
2008-11-28, 00:04:04,VALID,1003.89,VALID,0,VALID,87.8771,VALID,0,VALID,26.0791,VALID,351,VALID,0.602344,
2008-11-28, 00:05:04,VALID,1003.86,VALID,0,VALID,87.8923,VALID,0,VALID,26.0791,VALID,354,VALID,0.409375,
2008-11-28, 00:06:04,VALID,1003.87,VALID,0,VALID,88.0068,VALID,0,VALID,26.0596,VALID,306,VALID,0.489453,
2008-11-28, 00:07:04,VALID,1003.83,VALID,0,VALID,88.1059,VALID,0,VALID,26.081,VALID,309,VALID,0.280078,
2008-11-28, 00:08:04,VALID,1003.8,VALID,0,VALID,88.0907,VALID,0,VALID,26.0616,VALID,351,VALID,0.448047,
2008-11-28, 00:09:04,VALID,1003.77,VALID,0,VALID,88.0754,VALID,0,VALID,26.0401,VALID,340,VALID,1.20469,
2008-11-28, 00:10:04,VALID,1003.74,VALID,0,VALID,88.0907,VALID,0,VALID,26.0401,VALID,352,VALID,0.939844,
2008-11-28, 00:11:04,VALID,1003.72,VALID,0,VALID,88.0831,VALID,0,VALID,26.0421,VALID,323,VALID,0.497266,
2008-11-28, 00:12:04,VALID,1003.69,VALID,0,VALID,88.1899,VALID,0,VALID,26.0421,VALID,355,VALID,0.744922,
2008-11-28, 00:13:04,VALID,1003.68,VALID,0,VALID,88.2585,VALID,0,VALID,26.0012,VALID,349,VALID,0.5125,
2008-11-28, 00:14:04,VALID,1003.65,VALID,0,VALID,88.3501,VALID,0,VALID,26.0012,VALID,311,VALID,0.560156,
2008-11-28, 00:15:04,VALID,1003.6,VALID,0,VALID,88.3119,VALID,0,VALID,26.0012,VALID,349,VALID,1.10391,
2008-11-28, 00:16:04,VALID,1003.6,VALID,0,VALID,88.2967,VALID,0,VALID,26.0012,VALID,335,VALID,0.808594,
2008-11-28, 00:17:04,VALID,1003.58,VALID,0,VALID,88.1975,VALID,0,VALID,26.0206,VALID,350,VALID,0.796484,
2008-11-28, 00:18:04,VALID,1003.54,VALID,0,VALID,88.2661,VALID,0,VALID,26.0206,VALID,351,VALID,0.559766,
2008-11-28, 00:19:04,VALID,1003.56,VALID,0,VALID,88.2661,VALID,0,VALID,26.0012,VALID,270,VALID,0.491406,
2008-11-28, 00:20:04,VALID,1003.56,VALID,0,VALID,88.2738,VALID,0,VALID,26.0206,VALID,311,VALID,0.826953,
2008-11-28, 00:21:04,VALID,1003.54,VALID,0,VALID,88.228,VALID,0,VALID,26.0206,VALID,282,VALID,1.01172,
2008-11-28, 00:22:04,VALID,1003.54,VALID,0,VALID,88.3424,VALID,0,VALID,26.0421,VALID,326,VALID,0.656641,
2008-11-28, 00:23:04,VALID,1003.51,VALID,0,VALID,88.3272,VALID,0,VALID,26.0206,VALID,288,VALID,0.442578,
2008-11-28, 00:24:04,VALID,1003.5,VALID,0,VALID,88.2585,VALID,0,VALID,26.0206,VALID,294,VALID,1.02695,
2008-11-28, 00:25:04,VALID,1003.49,VALID,0,VALID,88.2433,VALID,0,VALID,26.0206,VALID,310,VALID,0.758203,
2008-11-28, 00:26:04,VALID,1003.49,VALID,0,VALID,88.2585,VALID,0,VALID,26.0421,VALID,324,VALID,0.35625,
2008-11-28, 00:27:04,VALID,1003.47,VALID,0,VALID,88.1059,VALID,0,VALID,26.0012,VALID,270,VALID,0.501953,
2008-11-28, 00:28:04,VALID,1003.46,VALID,0,VALID,87.8923,VALID,0,VALID,26.0401,VALID,295,VALID,0.950391,
2008-11-28, 00:29:04,VALID,1003.43,VALID,0,VALID,87.8771,VALID,0,VALID,26.0596,VALID,289,VALID,0.503125,
2008-11-28, 00:30:04,VALID,1003.39,VALID,0,VALID,87.4651,VALID,0,VALID,26.0576,VALID,22,VALID,1.03516,
2008-11-28, 00:31:04,VALID,1003.37,VALID,0,VALID,87.1447,VALID,0,VALID,26.0985,VALID,300,VALID,1.49141,
2008-11-28, 00:32:04,VALID,1003.37,VALID,0,VALID,86.9616,VALID,0,VALID,26.1375,VALID,306,VALID,0.768359,
2008-11-28, 00:33:04,VALID,1003.39,VALID,0,VALID,86.7633,VALID,0,VALID,26.157,VALID,307,VALID,0.398828,
2008-11-28, 00:34:04,VALID,1003.36,VALID,0,VALID,86.5191,VALID,0,VALID,26.1959,VALID,322,VALID,0.979297,
2008-11-28, 00:35:04,VALID,1003.35,VALID,0,VALID,86.2445,VALID,0,VALID,26.1959,VALID,296,VALID,1.65195,
2008-11-28, 00:36:04,VALID,1003.33,VALID,0,VALID,86.2216,VALID,0,VALID,26.2154,VALID,290,VALID,0.723437,
2008-11-28, 00:37:04,VALID,1003.35,VALID,0,VALID,86.3208,VALID,0,VALID,26.2154,VALID,279,VALID,0.268359,
2008-11-28, 00:38:04,VALID,1003.3,VALID,0,VALID,86.2826,VALID,0,VALID,26.2154,VALID,336,VALID,0.686719,
2008-11-28, 00:39:04,VALID,1003.28,VALID,0,VALID,86.275,VALID,0,VALID,26.1959,VALID,303,VALID,0.812109,
2008-11-28, 00:40:04,VALID,1003.27,VALID,0,VALID,86.3589,VALID,0,VALID,26.2154,VALID,335,VALID,0.810938,
2008-11-28, 00:41:04,VALID,1003.27,VALID,0,VALID,86.3437,VALID,0,VALID,26.1959,VALID,291,VALID,1.37461,
2008-11-28, 00:42:04,VALID,1003.29,VALID,0,VALID,86.3666,VALID,0,VALID,26.1959,VALID,351,VALID,1.07617,
2008-11-28, 00:43:04,VALID,1003.31,VALID,0,VALID,86.336,VALID,0,VALID,26.2154,VALID,288,VALID,1.43242,
2008-11-28, 00:44:04,VALID,1003.26,VALID,0,VALID,86.2216,VALID,0,VALID,26.2154,VALID,312,VALID,1.25195,
2008-11-28, 00:45:04,VALID,1003.24,VALID,0,VALID,86.1377,VALID,0,VALID,26.2369,VALID,313,VALID,0.941016,
2008-11-28, 00:46:04,VALID,1003.19,VALID,0,VALID,86.1758,VALID,0,VALID,26.2154,VALID,356,VALID,1.06953,
2008-11-28, 00:47:04,VALID,1003.12,VALID,0,VALID,86.2369,VALID,0,VALID,26.2369,VALID,314,VALID,0.458594,
2008-11-28, 00:48:04,VALID,1003.06,VALID,0,VALID,86.2216,VALID,0,VALID,26.1959,VALID,291,VALID,0.565625,
2008-11-28, 00:49:04,VALID,1003.04,VALID,0,VALID,86.2979,VALID,0,VALID,26.1979,VALID,10,VALID,0.870313,
2008-11-28, 00:50:04,VALID,1003.02,VALID,0,VALID,86.3132,VALID,0,VALID,26.157,VALID,340,VALID,1.26172,
2008-11-28, 00:51:04,VALID,1002.99,VALID,0,VALID,86.2369,VALID,0,VALID,26.0985,VALID,339,VALID,0.932422,
2008-11-28, 00:52:04,VALID,1002.98,VALID,0,VALID,86.3437,VALID,0,VALID,26.0985,VALID,352,VALID,0.757813,
2008-11-28, 00:53:04,VALID,1002.98,VALID,0,VALID,86.5573,VALID,0,VALID,26.081,VALID,2,VALID,0.722266,
2008-11-28, 00:54:04,VALID,1002.98,VALID,0,VALID,86.0995,VALID,0,VALID,26.0401,VALID,322,VALID,1.71914,
2008-11-28, 00:55:04,VALID,1002.97,VALID,0,VALID,86.0919,VALID,0,VALID,26.0401,VALID,14,VALID,1.00664,
2008-11-28, 00:56:04,VALID,1002.92,VALID,0,VALID,86.2292,VALID,0,VALID,26.0381,VALID,8,VALID,1.2168,
2008-11-28, 00:57:04,VALID,1002.88,VALID,0,VALID,86.3894,VALID,0,VALID,26.0401,VALID,359,VALID,1.25391,
2008-11-28, 00:58:04,VALID,1002.85,VALID,0,VALID,86.4352,VALID,0,VALID,26.0012,VALID,347,VALID,0.975781,
2008-11-28, 00:59:04,VALID,1002.85,VALID,0,VALID,86.5344,VALID,0,VALID,25.9817,VALID,349,VALID,0.735156,
2008-11-28, 01:00:04,VALID,1002.83,VALID,0,VALID,86.7251,VALID,0,VALID,25.9427,VALID,356,VALID,0.482422,
2008-11-28, 01:01:04,VALID,1002.83,VALID,0,VALID,86.9158,VALID,0,VALID,25.9642,VALID,342,VALID,0.542578,
2008-11-28, 01:02:04,VALID,1002.8,VALID,0,VALID,87.16,VALID,0,VALID,25.9038,VALID,355,VALID,1.15625,
2008-11-28, 01:03:04,VALID,1002.81,VALID,0,VALID,87.3049,VALID,0,VALID,25.8648,VALID,352,VALID,0.863672,
2008-11-28, 01:04:04,VALID,1002.82,VALID,0,VALID,87.4651,VALID,0,VALID,25.8453,VALID,344,VALID,0.633203,
2008-11-28, 01:05:04,VALID,1002.81,VALID,0,VALID,87.6101,VALID,0,VALID,25.8473,VALID,356,VALID,0.075,
2008-11-28, 01:06:04,VALID,1002.83,VALID,0,VALID,87.6024,VALID,0,VALID,25.8044,VALID,335,VALID,0.961719,
2008-11-28, 01:07:04,VALID,1002.8,VALID,0,VALID,87.7169,VALID,0,VALID,25.8278,VALID,340,VALID,0.5125,
2008-11-28, 01:08:04,VALID,1002.79,VALID,0,VALID,87.7932,VALID,0,VALID,25.7869,VALID,351,VALID,0.124609,
2008-11-28, 01:09:04,VALID,1002.76,VALID,0,VALID,87.9,VALID,0,VALID,25.8083,VALID,335,VALID,0.322266,
2008-11-28, 01:10:04,VALID,1002.74,VALID,0,VALID,88.0525,VALID,0,VALID,25.7694,VALID,349,VALID,0.688281,
2008-11-28, 01:11:04,VALID,1002.71,VALID,0,VALID,88.2204,VALID,0,VALID,25.709,VALID,349,VALID,0.671875,
2008-11-28, 01:12:04,VALID,1002.71,VALID,0,VALID,88.3501,VALID,0,VALID,25.6915,VALID,333,VALID,0.621484,
2008-11-28, 01:13:04,VALID,1002.7,VALID,0,VALID,88.4798,VALID,0,VALID,25.672,VALID,335,VALID,0.373047,
2008-11-28, 01:14:04,VALID,1002.7,VALID,0,VALID,88.4874,VALID,0,VALID,25.6506,VALID,288,VALID,0.771484,
2008-11-28, 01:15:04,VALID,1002.69,VALID,0,VALID,88.5103,VALID,0,VALID,25.6506,VALID,282,VALID,0.278516,
2008-11-28, 01:16:04,VALID,1002.68,VALID,0,VALID,88.434,VALID,0,VALID,25.6506,VALID,291,VALID,1.03555,
2008-11-28, 01:17:04,VALID,1002.69,VALID,0,VALID,88.3577,VALID,0,VALID,25.6915,VALID,294,VALID,0.519531,
2008-11-28, 01:18:04,VALID,1002.71,VALID,0,VALID,88.2814,VALID,0,VALID,25.7109,VALID,295,VALID,0.653516,
2008-11-28, 01:19:04,VALID,1002.7,VALID,0,VALID,88.1517,VALID,0,VALID,25.6681,VALID,300,VALID,1.00039,
2008-11-28, 01:20:04,VALID,1002.68,VALID,0,VALID,88.0678,VALID,0,VALID,25.6895,VALID,306,VALID,0.885938,
2008-11-28, 01:21:04,VALID,1002.64,VALID,0,VALID,87.8542,VALID,0,VALID,25.7304,VALID,298,VALID,1.28867,
2008-11-28, 01:22:04,VALID,1002.64,VALID,0,VALID,87.7703,VALID,0,VALID,25.7285,VALID,304,VALID,0.753125,
2008-11-28, 01:23:04,VALID,1002.64,VALID,0,VALID,87.7626,VALID,0,VALID,25.7285,VALID,290,VALID,0.741406,
2008-11-28, 01:24:04,VALID,1002.63,VALID,0,VALID,87.7092,VALID,0,VALID,25.7285,VALID,298,VALID,0.708984,
2008-11-28, 01:25:04,VALID,1002.63,VALID,0,VALID,87.7779,VALID,0.100563,VALID,25.7285,VALID,301,VALID,0.811328,
2008-11-28, 01:26:04,VALID,1002.62,VALID,0,VALID,87.9152,VALID,0,VALID,25.7071,VALID,341,VALID,0.317969,
2008-11-28, 01:27:04,VALID,1002.61,VALID,0,VALID,87.961,VALID,0,VALID,25.6895,VALID,354,VALID,1.22422,
2008-11-28, 01:28:04,VALID,1002.62,VALID,0,VALID,88.0983,VALID,0.100563,VALID,25.6292,VALID,349,VALID,0.585547,
2008-11-28, 01:29:04,VALID,1002.63,VALID,0,VALID,88.2967,VALID,0.100563,VALID,25.6097,VALID,349,VALID,0.344531,
2008-11-28, 01:30:04,VALID,1002.63,VALID,0,VALID,88.5179,VALID,0.100563,VALID,25.5513,VALID,350,VALID,0.725781,
2008-11-28, 01:31:04,VALID,1002.62,VALID,0,VALID,88.7468,VALID,0.100563,VALID,25.5123,VALID,6,VALID,0.901172,
2008-11-28, 01:32:04,VALID,1002.6,VALID,0,VALID,88.8841,VALID,0.100563,VALID,25.4928,VALID,356,VALID,0.513672,
2008-11-28, 01:33:04,VALID,1002.61,VALID,0,VALID,89.0824,VALID,0.100563,VALID,25.4344,VALID,350,VALID,0.411719,
2008-11-28, 01:34:04,VALID,1002.57,VALID,0,VALID,89.2426,VALID,0.100563,VALID,25.3955,VALID,350,VALID,0.411719,
2008-11-28, 01:35:04,VALID,1002.55,VALID,0,VALID,89.3647,VALID,0.100563,VALID,25.376,VALID,350,VALID,0.288281,
2008-11-28, 01:36:04,VALID,1002.53,VALID,0,VALID,89.6012,VALID,0.100563,VALID,25.3565,VALID,286,VALID,0.961719,
2008-11-28, 01:37:04,VALID,1002.49,VALID,0,VALID,89.6622,VALID,0.100563,VALID,25.3565,VALID,334,VALID,0.464453,
2008-11-28, 01:38:04,VALID,1002.49,VALID,0,VALID,89.6393,VALID,0.100563,VALID,25.3779,VALID,337,VALID,0.631641,
2008-11-28, 01:39:04,VALID,1002.47,VALID,0,VALID,89.6088,VALID,0.100563,VALID,25.337,VALID,348,VALID,0.495703,
2008-11-28, 01:40:04,VALID,1002.45,VALID,0,VALID,89.647,VALID,0,VALID,25.3798,VALID,352,VALID,0.428125,
2008-11-28, 01:41:04,VALID,1002.43,VALID,0,VALID,89.5707,VALID,0,VALID,25.3798,VALID,353,VALID,0.848437,
2008-11-28, 01:42:04,VALID,1002.41,VALID,0,VALID,89.5249,VALID,0,VALID,25.3584,VALID,329,VALID,0.511328,
2008-11-28, 01:43:04,VALID,1002.4,VALID,0,VALID,89.4791,VALID,0,VALID,25.3993,VALID,337,VALID,0.630859,
2008-11-28, 01:44:04,VALID,1002.39,VALID,0,VALID,89.4944,VALID,0,VALID,25.3584,VALID,337,VALID,0.348828,
2008-11-28, 01:45:04,VALID,1002.41,VALID,0,VALID,89.4944,VALID,0,VALID,25.3584,VALID,292,VALID,0.352344,
2008-11-28, 01:46:04,VALID,1002.39,VALID,0,VALID,89.4715,VALID,0,VALID,25.3584,VALID,296,VALID,0.885156,
2008-11-28, 01:47:04,VALID,1002.37,VALID,0,VALID,89.4181,VALID,0,VALID,25.3993,VALID,327,VALID,0.251563,
2008-11-28, 01:48:04,VALID,1002.36,VALID,0,VALID,89.3723,VALID,0,VALID,25.3779,VALID,327,VALID,0.355469,
2008-11-28, 01:49:04,VALID,1002.34,VALID,0,VALID,89.3189,VALID,0,VALID,25.3779,VALID,317,VALID,0.473828,
2008-11-28, 01:50:04,VALID,1002.33,VALID,0,VALID,89.3113,VALID,0,VALID,25.3779,VALID,348,VALID,0.665625,
2008-11-28, 01:51:04,VALID,1002.32,VALID,0,VALID,89.1664,VALID,0,VALID,25.337,VALID,318,VALID,0.627344,
2008-11-28, 01:52:04,VALID,1002.31,VALID,0,VALID,89.1892,VALID,0,VALID,25.3584,VALID,281,VALID,0.144141,
2008-11-28, 01:53:04,VALID,1002.31,VALID,0,VALID,89.113,VALID,0,VALID,25.3584,VALID,346,VALID,0.455469,
2008-11-28, 01:54:04,VALID,1002.26,VALID,0,VALID,89.1358,VALID,0,VALID,25.339,VALID,5,VALID,0.30625,
2008-11-28, 01:55:04,VALID,1002.27,VALID,0,VALID,89.1587,VALID,0,VALID,25.3604,VALID,312,VALID,0.395703,
2008-11-28, 01:56:04,VALID,1002.25,VALID,0,VALID,89.0672,VALID,0,VALID,25.3584,VALID,359,VALID,0.540234,
2008-11-28, 01:57:04,VALID,1002.27,VALID,0,VALID,89.0519,VALID,0,VALID,25.339,VALID,358,VALID,0.795313,
2008-11-28, 01:58:04,VALID,1002.27,VALID,0,VALID,89.0977,VALID,0,VALID,25.3584,VALID,340,VALID,0.19375,
2008-11-28, 01:59:04,VALID,1002.27,VALID,0,VALID,89.1511,VALID,0,VALID,25.3798,VALID,329,VALID,0.321484,
2008-11-28, 02:00:04,VALID,1002.23,VALID,0,VALID,89.113,VALID,0,VALID,25.339,VALID,350,VALID,0.851172,
2008-11-28, 02:01:04,VALID,1002.24,VALID,0,VALID,89.174,VALID,0,VALID,25.339,VALID,1,VALID,0.591797,
2008-11-28, 02:02:04,VALID,1002.22,VALID,0,VALID,89.2198,VALID,0,VALID,25.3195,VALID,356,VALID,0.379687,
2008-11-28, 02:03:04,VALID,1002.2,VALID,0,VALID,89.2045,VALID,0,VALID,25.3195,VALID,350,VALID,0.885938,
2008-11-28, 02:04:04,VALID,1002.2,VALID,0,VALID,89.2274,VALID,0,VALID,25.3214,VALID,351,VALID,0.707422,
2008-11-28, 02:05:04,VALID,1002.18,VALID,0,VALID,89.3266,VALID,0,VALID,25.3,VALID,201,VALID,0.276953,
2008-11-28, 02:06:04,VALID,1002.17,VALID,0,VALID,89.441,VALID,0,VALID,25.3019,VALID,342,VALID,0.136328,
2008-11-28, 02:07:04,VALID,1002.16,VALID,0,VALID,89.4181,VALID,0,VALID,25.2825,VALID,311,VALID,0.648438,
2008-11-28, 02:08:04,VALID,1002.2,VALID,0,VALID,89.4181,VALID,0,VALID,25.2611,VALID,350,VALID,0.444922,
2008-11-28, 02:09:04,VALID,1002.19,VALID,0,VALID,89.4715,VALID,0,VALID,25.2611,VALID,331,VALID,0.417188,
2008-11-28, 02:10:04,VALID,1002.19,VALID,0,VALID,89.4868,VALID,0,VALID,25.2416,VALID,273,VALID,0.322656,
2008-11-28, 02:11:04,VALID,1002.21,VALID,0,VALID,89.4868,VALID,0,VALID,25.2416,VALID,354,VALID,0.291016,
2008-11-28, 02:12:04,VALID,1002.22,VALID,0,VALID,89.4715,VALID,0,VALID,25.2416,VALID,321,VALID,0.0210938,
2008-11-28, 02:13:04,VALID,1002.23,VALID,0,VALID,89.5173,VALID,0,VALID,25.2416,VALID,354,VALID,0.284375,
2008-11-28, 02:14:04,VALID,1002.21,VALID,0,VALID,89.5325,VALID,0,VALID,25.2221,VALID,354,VALID,0.239844,
2008-11-28, 02:15:04,VALID,1002.22,VALID,0,VALID,89.4944,VALID,0,VALID,25.2221,VALID,335,VALID,0.108203,
2008-11-28, 02:16:04,VALID,1002.21,VALID,0,VALID,89.502,VALID,0,VALID,25.2221,VALID,309,VALID,0.315625,
2008-11-28, 02:17:04,VALID,1002.25,VALID,0,VALID,89.5478,VALID,0,VALID,25.2221,VALID,311,VALID,0.421484,
2008-11-28, 02:18:04,VALID,1002.27,VALID,0,VALID,89.5402,VALID,0,VALID,25.2027,VALID,311,VALID,0.183594,
2008-11-28, 02:19:04,VALID,1002.27,VALID,0,VALID,89.5936,VALID,0,VALID,25.2027,VALID,311,VALID,0.0375,
2008-11-28, 02:20:04,VALID,1002.29,VALID,0,VALID,89.7004,VALID,0,VALID,25.1832,VALID,311,VALID,0.296484,
2008-11-28, 02:21:04,VALID,1002.26,VALID,0,VALID,89.7385,VALID,0,VALID,25.1832,VALID,309,VALID,0.217969,
2008-11-28, 02:22:04,VALID,1002.27,VALID,0,VALID,89.7996,VALID,0,VALID,25.1637,VALID,332,VALID,0.534766,
2008-11-28, 02:23:04,VALID,1002.3,VALID,0,VALID,89.8758,VALID,0,VALID,25.1442,VALID,349,VALID,0.777734,
2008-11-28, 02:24:04,VALID,1002.3,VALID,0,VALID,89.9064,VALID,0,VALID,25.1637,VALID,356,VALID,0.675781,
2008-11-28, 02:25:04,VALID,1002.3,VALID,0,VALID,89.9064,VALID,0,VALID,25.1832,VALID,358,VALID,0.180469,
2008-11-28, 02:26:04,VALID,1002.34,VALID,0,VALID,89.9064,VALID,0,VALID,25.1442,VALID,358,VALID,0.0445312,
2008-11-28, 02:27:04,VALID,1002.32,VALID,0,VALID,90.0132,VALID,0,VALID,25.1442,VALID,353,VALID,0.233594,
2008-11-28, 02:28:04,VALID,1002.37,VALID,0,VALID,90.0132,VALID,0,VALID,25.1442,VALID,352,VALID,0.0078125,
2008-11-28, 02:29:04,VALID,1002.35,VALID,0,VALID,90.1047,VALID,0,VALID,25.1267,VALID,352,VALID,0.000390625,
2008-11-28, 02:30:04,VALID,1002.37,VALID,0,VALID,90.1123,VALID,0,VALID,25.1053,VALID,352,VALID,0.378125,
2008-11-28, 02:31:04,VALID,1002.37,VALID,0,VALID,90.1581,VALID,0,VALID,25.1053,VALID,351,VALID,0.305078,
2008-11-28, 02:32:04,VALID,1002.37,VALID,0,VALID,90.242,VALID,0,VALID,25.1053,VALID,352,VALID,0.457422,
2008-11-28, 02:33:04,VALID,1002.34,VALID,0,VALID,90.3031,VALID,0,VALID,25.1053,VALID,352,VALID,0.504687,
2008-11-28, 02:34:04,VALID,1002.35,VALID,0,VALID,90.3183,VALID,0,VALID,25.1267,VALID,352,VALID,0.303906,
2008-11-28, 02:35:04,VALID,1002.37,VALID,0,VALID,90.3336,VALID,0,VALID,25.1072,VALID,352,VALID,0.240625,
2008-11-28, 02:36:04,VALID,1002.28,VALID,0,VALID,90.4022,VALID,0,VALID,25.0858,VALID,343,VALID,0.550391,
2008-11-28, 02:37:04,VALID,1002.28,VALID,0,VALID,90.4862,VALID,0,VALID,25.1072,VALID,341,VALID,0.575,
2008-11-28, 02:38:04,VALID,1002.27,VALID,0,VALID,90.5548,VALID,0,VALID,25.1072,VALID,352,VALID,0.532422,
2008-11-28, 02:39:04,VALID,1002.27,VALID,0,VALID,90.6158,VALID,0,VALID,25.1072,VALID,354,VALID,0.687891,
2008-11-28, 02:40:04,VALID,1002.26,VALID,0,VALID,90.6616,VALID,0,VALID,25.0663,VALID,353,VALID,0.644141,
2008-11-28, 02:41:04,VALID,1002.27,VALID,0,VALID,90.6692,VALID,0,VALID,25.0663,VALID,342,VALID,0.147266,
2008-11-28, 02:42:04,VALID,1002.29,VALID,0,VALID,90.7074,VALID,0,VALID,25.0663,VALID,352,VALID,0.628906,
2008-11-28, 02:43:04,VALID,1002.31,VALID,0,VALID,90.7684,VALID,0,VALID,25.0469,VALID,338,VALID,0.436328,
2008-11-28, 02:44:04,VALID,1002.32,VALID,0,VALID,90.9057,VALID,0,VALID,25.0663,VALID,341,VALID,0.506641,
2008-11-28, 02:45:04,VALID,1002.34,VALID,0,VALID,90.9134,VALID,0,VALID,25.0469,VALID,343,VALID,0.552734,
2008-11-28, 02:46:04,VALID,1002.29,VALID,0,VALID,90.9439,VALID,0,VALID,25.0469,VALID,346,VALID,0.317578,
2008-11-28, 02:47:04,VALID,1002.33,VALID,0,VALID,91.0125,VALID,0,VALID,25.0682,VALID,350,VALID,0.527734,
2008-11-28, 02:48:04,VALID,1002.33,VALID,0,VALID,91.0736,VALID,0,VALID,25.0274,VALID,350,VALID,0.489453,
2008-11-28, 02:49:04,VALID,1002.31,VALID,0,VALID,91.1041,VALID,0,VALID,25.0293,VALID,350,VALID,0.415625,
2008-11-28, 02:50:04,VALID,1002.31,VALID,0,VALID,91.2262,VALID,0,VALID,24.969,VALID,350,VALID,0.175781,
2008-11-28, 02:51:04,VALID,1002.34,VALID,0,VALID,91.3406,VALID,0,VALID,24.9495,VALID,350,VALID,0.196484,
2008-11-28, 02:52:04,VALID,1002.35,VALID,0,VALID,91.4245,VALID,0,VALID,24.9904,VALID,350,VALID,0.316406,
2008-11-28, 02:53:04,VALID,1002.37,VALID,0,VALID,91.5542,VALID,0,VALID,24.9904,VALID,349,VALID,0.344531,
2008-11-28, 02:54:04,VALID,1002.37,VALID,0,VALID,91.5847,VALID,0,VALID,24.969,VALID,349,VALID,0.341406,
2008-11-28, 02:55:04,VALID,1002.37,VALID,0,VALID,91.6,VALID,0,VALID,24.9885,VALID,335,VALID,0.219141,
2008-11-28, 02:56:04,VALID,1002.4,VALID,0,VALID,91.5923,VALID,0,VALID,24.9885,VALID,335,VALID,0.21875,
2008-11-28, 02:57:04,VALID,1002.4,VALID,0,VALID,91.5695,VALID,0,VALID,24.9885,VALID,335,VALID,0.392578,
2008-11-28, 02:58:04,VALID,1002.39,VALID,0,VALID,91.5923,VALID,0,VALID,25.0098,VALID,338,VALID,0.288281,
2008-11-28, 02:59:04,VALID,1002.37,VALID,0,VALID,91.6305,VALID,0,VALID,25.0079,VALID,351,VALID,0.532812,
2008-11-28, 03:00:04,VALID,1002.4,VALID,0,VALID,91.6152,VALID,0,VALID,25.0274,VALID,356,VALID,0.538672,
2008-11-28, 03:01:04,VALID,1002.39,VALID,0,VALID,91.5771,VALID,0,VALID,25.0469,VALID,345,VALID,0.513672,
2008-11-28, 03:02:04,VALID,1002.39,VALID,0,VALID,91.4932,VALID,0,VALID,25.0469,VALID,353,VALID,0.704687,
2008-11-28, 03:03:04,VALID,1002.39,VALID,0,VALID,91.4779,VALID,0,VALID,25.0469,VALID,343,VALID,0.569141,
2008-11-28, 03:04:05,VALID,1002.39,VALID,0,VALID,91.333,VALID,0,VALID,25.0663,VALID,354,VALID,0.631641,
2008-11-28, 03:05:05,VALID,1002.39,VALID,0,VALID,91.2872,VALID,0,VALID,25.0469,VALID,348,VALID,0.578125,
2008-11-28, 03:06:05,VALID,1002.4,VALID,0,VALID,91.2643,VALID,0,VALID,25.0663,VALID,288,VALID,0.21875,
2008-11-28, 03:07:05,VALID,1002.41,VALID,0,VALID,91.2796,VALID,0,VALID,25.0858,VALID,284,VALID,0.935156,
2008-11-28, 03:08:05,VALID,1002.39,VALID,0,VALID,91.1651,VALID,0,VALID,25.1248,VALID,334,VALID,0.271875,
2008-11-28, 03:09:05,VALID,1002.41,VALID,0,VALID,90.9744,VALID,0,VALID,25.1442,VALID,288,VALID,0.291797,
2008-11-28, 03:10:05,VALID,1002.38,VALID,0,VALID,90.8447,VALID,0,VALID,25.1832,VALID,325,VALID,0.282031,
2008-11-28, 03:11:05,VALID,1002.39,VALID,0,VALID,90.715,VALID,0,VALID,25.224,VALID,329,VALID,0.384766,
2008-11-28, 03:12:05,VALID,1002.38,VALID,0,VALID,90.5777,VALID,0,VALID,25.224,VALID,339,VALID,0.2625,
2008-11-28, 03:13:05,VALID,1002.4,VALID,0,VALID,90.5167,VALID,0,VALID,25.2027,VALID,338,VALID,0.126953,
2008-11-28, 03:14:05,VALID,1002.4,VALID,0,VALID,90.3717,VALID,0,VALID,25.2416,VALID,275,VALID,0.570703,
2008-11-28, 03:15:05,VALID,1002.43,VALID,0,VALID,90.2039,VALID,0,VALID,25.2611,VALID,281,VALID,0.490625,
2008-11-28, 03:16:05,VALID,1002.42,VALID,0,VALID,90.036,VALID,0,VALID,25.2806,VALID,281,VALID,0,
2008-11-28, 03:17:05,VALID,1002.43,VALID,0,VALID,89.9903,VALID,0,VALID,25.2786,VALID,281,VALID,0.249219,
2008-11-28, 03:18:05,VALID,1002.44,VALID,0,VALID,89.9064,VALID,0,VALID,25.2592,VALID,281,VALID,0.228516,
2008-11-28, 03:19:05,VALID,1002.45,VALID,0,VALID,89.8606,VALID,0,VALID,25.2806,VALID,281,VALID,0.452734,
2008-11-28, 03:20:05,VALID,1002.47,VALID,0,VALID,89.8758,VALID,0,VALID,25.2806,VALID,308,VALID,0.347266,
2008-11-28, 03:21:05,VALID,1002.48,VALID,0,VALID,89.8301,VALID,0,VALID,25.2806,VALID,352,VALID,0.620313,
2008-11-28, 03:22:05,VALID,1002.49,VALID,0,VALID,89.769,VALID,0,VALID,25.3,VALID,353,VALID,0.160547,
2008-11-28, 03:23:05,VALID,1002.5,VALID,0,VALID,89.7385,VALID,0,VALID,25.3,VALID,355,VALID,0.166406,
2008-11-28, 03:24:05,VALID,1002.52,VALID,0,VALID,89.7385,VALID,0,VALID,25.3,VALID,299,VALID,0.0953125,
2008-11-28, 03:25:05,VALID,1002.51,VALID,0,VALID,89.7461,VALID,0,VALID,25.3,VALID,299,VALID,0.0183594,
2008-11-28, 03:26:05,VALID,1002.51,VALID,0,VALID,89.7385,VALID,0,VALID,25.3,VALID,355,VALID,0.375781,
2008-11-28, 03:27:05,VALID,1002.53,VALID,0,VALID,89.7004,VALID,0,VALID,25.3,VALID,351,VALID,0.572266,
2008-11-28, 03:28:05,VALID,1002.51,VALID,0,VALID,89.6927,VALID,0,VALID,25.2806,VALID,329,VALID,0.142188,
2008-11-28, 03:29:05,VALID,1002.52,VALID,0,VALID,89.7233,VALID,0,VALID,25.3,VALID,291,VALID,0.35625,
2008-11-28, 03:30:05,VALID,1002.49,VALID,0,VALID,89.7461,VALID,0,VALID,25.3,VALID,291,VALID,0.0585938,
2008-11-28, 03:31:05,VALID,1002.5,VALID,0,VALID,89.7233,VALID,0,VALID,25.3,VALID,291,VALID,0.00117188,
2008-11-28, 03:32:05,VALID,1002.49,VALID,0,VALID,89.769,VALID,0,VALID,25.2806,VALID,298,VALID,0.389844,
2008-11-28, 03:33:05,VALID,1002.5,VALID,0,VALID,89.708,VALID,0,VALID,25.3,VALID,286,VALID,0.858984,
2008-11-28, 03:34:05,VALID,1002.49,VALID,0,VALID,89.647,VALID,0,VALID,25.3195,VALID,280,VALID,0.454297,
2008-11-28, 03:35:05,VALID,1002.51,VALID,0,VALID,89.5249,VALID,0,VALID,25.339,VALID,289,VALID,0.204297,
2008-11-28, 03:36:05,VALID,1002.5,VALID,0,VALID,89.4563,VALID,0,VALID,25.339,VALID,283,VALID,0.700781,
2008-11-28, 03:37:05,VALID,1002.49,VALID,0,VALID,89.4257,VALID,0,VALID,25.3584,VALID,275,VALID,0.133203,
2008-11-28, 03:38:05,VALID,1002.51,VALID,0,VALID,89.4181,VALID,0,VALID,25.3176,VALID,275,VALID,0.380078,
2008-11-28, 03:39:05,VALID,1002.54,VALID,0,VALID,89.4486,VALID,0,VALID,25.3584,VALID,281,VALID,0.328516,
2008-11-28, 03:40:05,VALID,1002.54,VALID,0,VALID,89.4334,VALID,0,VALID,25.3584,VALID,4,VALID,0.894531,
2008-11-28, 03:41:05,VALID,1002.53,VALID,0,VALID,89.3876,VALID,0,VALID,25.339,VALID,357,VALID,0.521094,
2008-11-28, 03:42:05,VALID,1002.55,VALID,0,VALID,89.3723,VALID,0,VALID,25.3584,VALID,355,VALID,0.321484,
2008-11-28, 03:43:05,VALID,1002.55,VALID,0,VALID,89.3418,VALID,0,VALID,25.339,VALID,355,VALID,0.0121094,
2008-11-28, 03:44:05,VALID,1002.57,VALID,0,VALID,89.4257,VALID,0,VALID,25.339,VALID,348,VALID,0.762891,